Dubois, WY

5:27 PM MST on January 20, 2017 (GMT -0700)
Dubois Muni, Dubois, WY

Weather History for KDUB - April, 2014

Change the Weather History Date:

Monday, April 28, 2014

  Actual Average (KJAC) Record (KJAC)
Temperature  
Mean Temperature 30 °F -  
Max Temperature 35 °F 52 °F 75 °F (1987)
Min Temperature 24 °F 25 °F 11 °F (1984)
Degree Days  
Heating Degree Days 36    
Moisture  
Dew Point 14 °F    
Average Humidity 52    
Maximum Humidity 69    
Minimum Humidity 33    
Precipitation  
Precipitation 0.00 in - - ()
Sea Level Pressure  
Sea Level Pressure 29.94 in    
Wind  
Wind Speed 18 mph (NW)    
Max Wind Speed 28 mph    
Max Gust Speed 36 mph    
Visibility 10 miles    
Events      
Averages and records for this station are not official NWS values.
T = Trace of Precipitation, MM = Missing Value Source: NWS Daily Summary

Daily Weather History Graph

Daily Weather History Graph

Search for Another Location

Airport or City:

Trip Planner

Search our weather history database for the weather conditions in past years. The results will help you decide how hot, cold, wet, or windy it might be!

Date:

Astronomy

Apr. 28, 2014 Rise Set
Actual Time 6:15 AM MDT 8:17 PM MDT
Civil Twilight 5:44 AM MDT 8:48 PM MDT
Nautical Twilight 5:06 AM MDT 9:27 PM MDT
Astronomical Twilight 4:24 AM MDT 10:09 PM MDT
Moon 5:57 AM MDT (4/28) 7:58 PM MDT (4/28)
Length of Visible Light 15h 04m
Length of Day
14h 02m
Waning Crescent, 0% of the Moon is Illuminated
Apr 28
Waning Crescent
Apr 29
New
May 6
First Quarter
May 14
Full
May 21
Last Quarter

Hourly Weather History & Observations

Time (MDT) Temp. Windchill Dew Point Humidity Pressure Visibility Wind Dir Wind Speed Gust Speed Precip Events Conditions
12:15 AM 30.2 °F 18.1 °F 21.2 °F 69% 29.75 in 10.0 mi West 18.4 mph - N/A   Scattered Clouds
12:35 AM 30.2 °F 21.3 °F 21.2 °F 69% 29.75 in 10.0 mi WNW 10.4 mph - N/A   Scattered Clouds
12:55 AM 30.2 °F 18.1 °F 19.4 °F 64% 29.75 in 10.0 mi WNW 18.4 mph 24.2 mph N/A   Clear
1:15 AM 28.4 °F 18.0 °F 19.4 °F 69% 29.75 in 10.0 mi NW 12.7 mph - N/A   Clear
1:35 AM 30.2 °F 19.8 °F 19.4 °F 64% 29.75 in 10.0 mi NNW 13.8 mph 24.2 mph N/A   Clear
1:55 AM 28.4 °F 16.2 °F 19.4 °F 69% 29.75 in 10.0 mi NW 17.3 mph 23.0 mph N/A   Clear
2:15 AM 28.4 °F 19.1 °F 19.4 °F 69% 29.75 in 10.0 mi NW 10.4 mph 17.3 mph N/A   Clear
2:30 AM 28.4 °F 17.0 °F 19.4 °F 69% 29.75 in 10.0 mi NW 15.0 mph 18.4 mph N/A   Clear
2:55 AM 28.4 °F 17.5 °F 19.4 °F 69% 29.75 in 10.0 mi WNW 13.8 mph - N/A   Clear
3:15 AM 28.4 °F 16.6 °F 17.6 °F 64% 29.75 in 10.0 mi NW 16.1 mph 23.0 mph N/A   Clear
3:35 AM 28.4 °F 13.3 °F 15.8 °F 59% 29.76 in 10.0 mi WNW 27.6 mph 33.4 mph N/A   Scattered Clouds
3:55 AM 26.6 °F 13.4 °F 14.0 °F 59% 29.77 in 10.0 mi NW 18.4 mph 24.2 mph N/A   Clear
4:15 AM 26.6 °F 14.7 °F 14.0 °F 59% 29.77 in 10.0 mi WNW 15.0 mph - N/A   Clear
4:35 AM 26.6 °F 14.7 °F 12.2 °F 55% 29.77 in 10.0 mi WNW 15.0 mph 21.9 mph N/A   Clear
4:55 AM 26.6 °F 15.7 °F 12.2 °F 55% 29.77 in 10.0 mi NNW 12.7 mph 20.7 mph N/A   Clear
5:15 AM 24.8 °F 11.9 °F 14.0 °F 64% 29.79 in 10.0 mi NW 16.1 mph 20.7 mph N/A   Clear
5:35 AM 24.8 °F 14.0 °F 14.0 °F 64% 29.80 in 10.0 mi NW 11.5 mph 20.7 mph N/A   Clear
5:55 AM 24.8 °F 12.4 °F 14.0 °F 64% 29.82 in 10.0 mi NNW 15.0 mph 23.0 mph N/A   Mostly Cloudy
6:15 AM 26.6 °F 13.8 °F 12.2 °F 55% 29.83 in 10.0 mi NW 17.3 mph 25.3 mph N/A   Overcast
6:35 AM 26.6 °F 13.4 °F 10.4 °F 51% 29.83 in 10.0 mi WNW 18.4 mph 21.9 mph N/A   Overcast
6:55 AM 26.6 °F 15.2 °F 10.4 °F 51% 29.83 in 10.0 mi NW 13.8 mph 20.7 mph N/A   Overcast
7:15 AM 24.8 °F 13.4 °F 12.2 °F 59% 29.85 in 10.0 mi NW 12.7 mph 18.4 mph N/A   Overcast
7:35 AM 26.6 °F 15.7 °F 14.0 °F 59% 29.85 in 10.0 mi NNW 12.7 mph 19.6 mph N/A   Mostly Cloudy
7:55 AM 28.4 °F 16.2 °F 12.2 °F 51% 29.86 in 10.0 mi NW 17.3 mph 23.0 mph N/A   Scattered Clouds
8:15 AM 28.4 °F 15.1 °F 12.2 °F 51% 29.86 in 10.0 mi WNW 20.7 mph 31.1 mph N/A   Scattered Clouds
8:35 AM 30.2 °F 17.4 °F 12.2 °F 47% 29.87 in 10.0 mi WNW 20.7 mph 35.7 mph N/A   Clear
8:55 AM 30.2 °F 16.5 °F 12.2 °F 47% 29.87 in 10.0 mi WNW 24.2 mph 29.9 mph N/A   Clear
9:15 AM 30.2 °F 17.4 °F 10.4 °F 44% 29.88 in 10.0 mi WNW 20.7 mph 31.1 mph N/A   Clear
9:35 AM 32.0 °F 18.1 °F 12.2 °F 44% 29.88 in 10.0 mi WNW 27.6 mph 35.7 mph N/A   Clear
10:15 AM 32.0 °F 20.5 °F 12.2 °F 44% 29.89 in 10.0 mi NW 18.4 mph 29.9 mph N/A   Scattered Clouds
10:35 AM 32.0 °F 20.1 °F 10.4 °F 41% 29.90 in 10.0 mi NW 19.6 mph 32.2 mph N/A   Scattered Clouds
11:15 AM 32.0 °F 19.5 °F 10.4 °F 41% 29.90 in 10.0 mi WNW 21.9 mph 29.9 mph N/A   Clear
11:35 AM 33.8 °F 22.2 °F 12.2 °F 41% 29.92 in 10.0 mi WNW 20.7 mph 33.4 mph N/A   Mostly Cloudy
11:55 AM 33.8 °F 20.5 °F 10.4 °F 38% 29.92 in 10.0 mi WNW 27.6 mph 34.5 mph N/A   Mostly Cloudy
12:15 PM 33.8 °F 21.6 °F 10.4 °F 38% 29.92 in 10.0 mi NW 23.0 mph 32.2 mph N/A   Scattered Clouds
12:35 PM 33.8 °F 21.0 °F 8.6 °F 35% 29.92 in 10.0 mi NW 25.3 mph 33.4 mph N/A   Scattered Clouds
12:55 PM 33.8 °F 22.5 °F 12.2 °F 41% 29.92 in 10.0 mi NW 19.6 mph 29.9 mph N/A   Scattered Clouds
1:15 PM 33.8 °F 22.2 °F 12.2 °F 41% 29.92 in 10.0 mi NW 20.7 mph 27.6 mph N/A   Clear
1:30 PM 35.6 °F 24.8 °F 12.2 °F 38% 29.92 in 10.0 mi NW 19.6 mph 32.2 mph N/A   Scattered Clouds
1:55 PM 35.6 °F 24.8 °F 8.6 °F 33% 29.93 in 10.0 mi NW 19.6 mph 31.1 mph N/A   Mostly Cloudy
2:35 PM 35.6 °F 24.8 °F 10.4 °F 35% 29.94 in 10.0 mi North 19.6 mph 28.8 mph N/A   Mostly Cloudy
3:15 PM 35.6 °F 25.5 °F 14.0 °F 41% 29.97 in 10.0 mi North 17.3 mph 32.2 mph N/A   Mostly Cloudy
3:35 PM 35.6 °F 24.2 °F 10.4 °F 35% 29.98 in 10.0 mi NNW 21.9 mph 31.1 mph N/A   Mostly Cloudy
3:55 PM 33.8 °F 21.3 °F 14.0 °F 44% 30.00 in 10.0 mi NW 24.2 mph 28.8 mph N/A   Mostly Cloudy
4:15 PM 33.8 °F 21.9 °F 17.6 °F 52% 30.01 in 10.0 mi NNW 21.9 mph 31.1 mph N/A   Scattered Clouds
4:35 PM 33.8 °F 21.0 °F 17.6 °F 52% 30.03 in 10.0 mi NNW 25.3 mph 32.2 mph N/A   Scattered Clouds
4:55 PM 32.0 °F 20.8 °F 19.4 °F 60% 30.04 in 10.0 mi West 17.3 mph 24.2 mph N/A   Scattered Clouds
5:15 PM 33.8 °F 22.5 °F 17.6 °F 52% 30.04 in 10.0 mi WNW 19.6 mph 26.5 mph N/A   Scattered Clouds
5:35 PM 33.8 °F 20.5 °F 19.4 °F 56% 30.06 in 10.0 mi NW 27.6 mph 33.4 mph N/A   Clear
5:55 PM 33.8 °F 21.3 °F 14.0 °F 44% 30.06 in 10.0 mi WNW 24.2 mph 29.9 mph N/A   Clear
6:15 PM 33.8 °F 22.2 °F 14.0 °F 44% 30.06 in 10.0 mi WNW 20.7 mph 27.6 mph N/A   Clear
6:35 PM 33.8 °F 22.2 °F 14.0 °F 44% 30.07 in 10.0 mi WNW 20.7 mph 27.6 mph N/A   Clear
6:55 PM 33.8 °F 22.2 °F 14.0 °F 44% 30.08 in 10.0 mi WNW 20.7 mph 24.2 mph N/A   Clear
7:15 PM 32.0 °F 19.8 °F 14.0 °F 48% 30.10 in 10.0 mi NW 20.7 mph 28.8 mph N/A   Scattered Clouds
7:35 PM 32.0 °F 19.8 °F 14.0 °F 48% 30.10 in 10.0 mi WNW 20.7 mph 27.6 mph N/A   Clear
7:55 PM 32.0 °F 19.2 °F 14.0 °F 48% 30.11 in 10.0 mi WNW 23.0 mph 29.9 mph N/A   Clear
8:15 PM 30.2 °F 17.4 °F 14.0 °F 51% 30.12 in 10.0 mi WNW 20.7 mph 26.5 mph N/A   Clear
8:35 PM 30.2 °F 17.4 °F 14.0 °F 51% 30.13 in 10.0 mi WNW 20.7 mph 28.8 mph N/A   Clear
8:55 PM 30.2 °F 16.8 °F 14.0 °F 51% 30.14 in 10.0 mi West 23.0 mph 29.9 mph N/A   Clear
9:15 PM 30.2 °F 17.8 °F 14.0 °F 51% 30.16 in 10.0 mi West 19.6 mph 25.3 mph N/A   Clear
9:35 PM 28.4 °F 15.4 °F 15.8 °F 59% 30.16 in 10.0 mi West 19.6 mph 27.6 mph N/A   Clear
9:55 PM 28.4 °F 15.4 °F 15.8 °F 59% 30.18 in 10.0 mi West 19.6 mph - N/A   Clear
10:15 PM 28.4 °F 15.1 °F 15.8 °F 59% 30.18 in 10.0 mi West 20.7 mph - N/A   Clear
10:35 PM 28.4 °F 15.8 °F 15.8 °F 59% 30.19 in 10.0 mi WNW 18.4 mph 23.0 mph N/A   Clear
10:55 PM 28.4 °F 16.2 °F 14.0 °F 55% 30.19 in 10.0 mi West 17.3 mph 26.5 mph N/A   Clear
11:15 PM 28.4 °F 16.2 °F 14.0 °F 55% 30.20 in 10.0 mi West 17.3 mph - N/A   Clear
11:35 PM 28.4 °F 16.2 °F 14.0 °F 55% 30.21 in 10.0 mi WNW 17.3 mph - N/A   Clear
11:55 PM 28.4 °F 15.1 °F 15.8 °F 59% 30.21 in 10.0 mi West 20.7 mph - N/A   Clear